Content
SEND FEEDBACK

Daily
Averages
Monthly
Summary
United States of America

DE PERE, WISCONSIN


Home > North America > United States > Wisconsin
Elevation: 662 feet     Latitude: 44 28N     Longitude: 088 07W

WEATHER
 
SELECT A DAY
Number of Records: 210,718;   Date Range: 1/1/95 - 7/23/14
 
SHARE

PRINT THIS DATA

[ ← Previous Day ]
WEATHER ALMANAC - JANUARY 31, 2013
[ Next Day → ]
[ °C ]   °F
Weather ElementAverageHighLow
Temperature11.5 °F16 °F (12:53 am)3 °F (11:53 pm)
Dewpoint3.7 °F10.9 °F (12:53 am)-5.1 °F (11:53 pm)
Humidity71.1 %81 % (12:53 am)62 % (12:53 pm)
Barometer29.80 in30.09 in (11:53 pm)29.56 in (12:53 am)
Wind Speed15.9 mph20.7 mph (9:53 am)
Wind Gust24.2 mph (4:53 am)
Weather ElementAverage
Visibility6.7 mi
Wind DirectionWNW (277.6 °)

Weather ElementTotal
Precipitation5.26 in
Heating Degree Days55.5 (Base 65)
Averaged from 29 records on January 31, 2013
WEATHER CONDITIONS BREAKOUT
WIND DIRECTION BREAKOUT
WEATHER BY HOUR - JANUARY 31, 2013
[ °C ]   °F
Local TimeTemperatureDewpointHumidityBarometerVisibilityWind DirectionWind SpeedGust SpeedPrecipitationEventsConditions
12:53 AM16.0 °F10.9 °F81 %29.56 in3.0 miWest (270°)13.8 mph0.00 inSnowLight Snow
1:53 AM15.1 °F9.0 °F77 %29.58 in10.0 miWest (280°)12.7 mph0.00 inMostly Cloudy
2:53 AM15.1 °F8.1 °F74 %29.60 in10.0 miWest (280°)16.1 mph0.01 inSnowLight Snow
3:53 AM14.0 °F9.0 °F80 %29.61 in4.0 miWest (270°)17.3 mph0.27 inSnowLight Snow
4:53 AM12.9 °F6.1 °F74 %29.64 in7.0 miWNW (290°)19.6 mph24.2 mph0.00 inOvercast
5:53 AM12.9 °F5.0 °F71 %29.66 in10.0 miWNW (290°)17.3 mphOvercast
6:53 AM12.0 °F3.9 °F70 %29.68 in10.0 miWest (280°)15.0 mphOvercast
7:53 AM10.9 °F3.9 °F73 %29.71 in3.0 miWest (270°)15.0 mph0.04 inSnowLight Snow
8:53 AM12.0 °F3.9 °F70 %29.74 in5.0 miWest (280°)17.3 mph1.19 inSnowLight Snow
9:11 AM12.0 °F3.9 °F70 %29.71 in2.0 miWest (280°)17.3 mph0.29 inSnowLight Snow
9:15 AM12.0 °F3.9 °F70 %29.71 in3.0 miWest (280°)15.0 mph0.29 inSnowLight Snow
9:25 AM12.0 °F3.0 °F67 %29.71 in3.0 miWest (280°)16.1 mph24.2 mph0.44 inSnowLight Snow
9:53 AM12.0 °F3.0 °F67 %29.77 in5.0 miWNW (290°)20.7 mph0.97 inHaze
10:53 AM12.0 °F3.9 °F70 %29.79 in4.0 miWest (280°)18.4 mph1.27 inHaze
11:53 AM12.9 °F3.9 °F67 %29.80 in6.0 miWest (280°)17.3 mph0.49 inHaze
12:53 PM14.0 °F3.0 °F62 %29.81 in10.0 miWest (270°)15.0 mphPartly Cloudy
1:53 PM14.0 °F3.9 °F64 %29.82 in9.0 miWest (260°)19.6 mphOvercast
2:53 PM12.9 °F6.1 °F74 %29.85 in5.0 miWest (260°)16.1 mphHaze
3:16 PM12.9 °F5.0 °F71 %29.81 in2.5 miWest (270°)13.8 mph0.00 inSnowLight Snow
3:23 PM12.9 °F5.0 °F71 %29.81 in4.0 miWest (270°)18.4 mph0.00 inHaze
3:53 PM12.9 °F5.0 °F71 %29.87 in7.0 miWest (270°)16.1 mph0.00 inOvercast
4:53 PM10.9 °F3.9 °F73 %29.90 in8.0 miWest (270°)15.0 mphOvercast
5:53 PM10.9 °F1.9 °F67 %29.93 in7.0 miWest (270°)17.3 mphOvercast
6:53 PM9.0 °F1.9 °F73 %29.96 in8.0 miWest (280°)19.6 mphOvercast
7:53 PM8.1 °F1.0 °F73 %30.00 in9.0 miWest (280°)15.0 mphOvercast
8:53 PM6.8 °F-0.4 °F72 %29.98 in10.0 miWNW (290°)11.5 mphClear
9:53 PM6.1 °F-2.9 °F67 %30.05 in10.0 miWNW (290°)10.4 mphClear
10:53 PM3.9 °F-2.9 °F73 %30.07 in10.0 miWNW (290°)13.8 mphClear
11:53 PM3.0 °F-5.1 °F69 %30.09 in10.0 miWest (280°)11.5 mphClear
Hourly data recorded from KGRB, located miles away from De Pere, Wisconsin







STORIES FROM OUR PARTNERS